When you browse on this site, cookies collect data to enhance your experience and personalize the content and advertising you see.
Visit our Privacy Policy to learn more. By continuing to use the site, you agree to this use of cookies and data.
  • In Österreich
  • Länderverzeichnis
  • Für 7 Tage
  • Wassertemperatur
  • Satellitenkarten
  • Wetterkarte
  • News
  • Widgets
  • user-avatar
    Anmelden

    Stündliche Wetter Kumamoto

    Heute, 22 April, Montag

    Zeit Temperatur Niederschläge Wind Luftdruck Luftfeuchtigkeit
    00:00 +20°C° 0 mm 1 m/S 758 mmHg 59%
    01:00 +18°C° 0 mm 0 m/S 758 mmHg 60%
    02:00 +18°C° 0 mm 0 m/S 758 mmHg 61%
    03:00 +18°C° 0 mm 0 m/S 758 mmHg 60%
    04:00 +18°C° 0 mm 0 m/S 758 mmHg 60%
    05:00 +20°C° 0 mm 1 m/S 758 mmHg 60%
    06:00 +20°C° 0 mm 1 m/S 758 mmHg 60%
    07:00 +22°C° 0 mm 1 m/S 759 mmHg 55%
    08:00 +24°C° 0 mm 1 m/S 759 mmHg 50%
    09:00 +23°C° 0 mm 0 m/S 759 mmHg 48%
    10:00 +25°C° 0 mm 0 m/S 759 mmHg 42%
    11:00 +28°C° 0 mm 0 m/S 759 mmHg 36%
    12:00 +30°C° 0 mm 0 m/S 759 mmHg 31%
    13:00 +32°C° 0 mm 1 m/S 759 mmHg 30%
    14:00 +32°C° 0 mm 1 m/S 759 mmHg 29%
    15:00 +31°C° 0 mm 2 m/S 758 mmHg 32%
    16:00 +30°C° 0 mm 2 m/S 759 mmHg 35%
    17:00 +29°C° 0 mm 2 m/S 759 mmHg 38%
    18:00 +28°C° 0 mm 2 m/S 759 mmHg 41%
    19:00 +27°C° 0 mm 2 m/S 759 mmHg 47%
    20:00 +25°C° 0 mm 1 m/S 760 mmHg 52%
    21:00 +24°C° 0 mm 1 m/S 760 mmHg 59%
    22:00 +24°C° 0 mm 1 m/S 760 mmHg 62%
    23:00 +23°C° 0 mm 1 m/S 760 mmHg 64%

    Morgen, 23 April, Dienstag

    Zeit Temperatur Niederschläge Wind Luftdruck Luftfeuchtigkeit
    00:00 +23°C° 0 mm 1 m/S 760 mmHg 67%
    01:00 +22°C° 0 mm 1 m/S 760 mmHg 68%
    02:00 +22°C° 0 mm 1 m/S 760 mmHg 70%
    03:00 +22°C° 0 mm 1 m/S 760 mmHg 71%
    04:00 +22°C° 0 mm 1 m/S 760 mmHg 71%
    05:00 +22°C° 0 mm 1 m/S 760 mmHg 71%
    06:00 +22°C° 0 mm 1 m/S 760 mmHg 71%
    07:00 +23°C° 0 mm 1 m/S 760 mmHg 65%
    08:00 +25°C° 0 mm 1 m/S 760 mmHg 59%
    09:00 +26°C° 0 mm 1 m/S 760 mmHg 53%
    10:00 +27°C° 0 mm 1 m/S 760 mmHg 49%
    11:00 +28°C° 0 mm 2 m/S 760 mmHg 45%
    12:00 +29°C° 0 mm 2 m/S 760 mmHg 41%
    13:00 +29°C° 0 mm 3 m/S 760 mmHg 44%
    14:00 +28°C° 0 mm 3 m/S 760 mmHg 47%
    15:00 +27°C° 0 mm 3 m/S 759 mmHg 49%
    16:00 +26°C° 0.1 mm 3 m/S 759 mmHg 54%
    17:00 +25°C° 0.1 mm 2 m/S 759 mmHg 58%
    18:00 +24°C° 0.1 mm 2 m/S 759 mmHg 62%
    19:00 +24°C° 0.4 mm 2 m/S 759 mmHg 66%
    20:00 +23°C° 0.4 mm 2 m/S 759 mmHg 70%
    21:00 +22°C° 0.4 mm 1 m/S 759 mmHg 74%
    22:00 +21°C° 0.3 mm 2 m/S 758 mmHg 75%
    23:00 +21°C° 0.3 mm 2 m/S 758 mmHg 76%

    übermorgen, 24 April, Mittwoch

    Zeit Temperatur Niederschläge Wind Luftdruck Luftfeuchtigkeit
    00:00 +21°C° 0.3 mm 2 m/S 758 mmHg 76%
    01:00 +21°C° 0.2 mm 2 m/S 757 mmHg 76%
    02:00 +21°C° 0.2 mm 3 m/S 757 mmHg 76%
    03:00 +21°C° 0.2 mm 3 m/S 756 mmHg 76%
    04:00 +21°C° 0.3 mm 3 m/S 756 mmHg 77%
    05:00 +21°C° 0.3 mm 2 m/S 756 mmHg 78%
    06:00 +21°C° 0.3 mm 2 m/S 755 mmHg 78%
    07:00 +23°C° 0.3 mm 2 m/S 756 mmHg 75%
    08:00 +25°C° 0.3 mm 2 m/S 756 mmHg 72%
    09:00 +26°C° 0.3 mm 2 m/S 756 mmHg 69%
    10:00 +26°C° 0.3 mm 3 m/S 756 mmHg 71%
    11:00 +26°C° 0.3 mm 3 m/S 756 mmHg 73%
    12:00 +27°C° 0.3 mm 4 m/S 756 mmHg 75%
    13:00 +27°C° 0.3 mm 4 m/S 755 mmHg 74%
    14:00 +27°C° 0.3 mm 4 m/S 755 mmHg 73%
    15:00 +27°C° 0.3 mm 4 m/S 754 mmHg 73%
    16:00 +26°C° 0 mm 4 m/S 754 mmHg 74%
    17:00 +26°C° 0 mm 3 m/S 754 mmHg 76%
    18:00 +25°C° 0 mm 3 m/S 753 mmHg 77%
    19:00 +24°C° 0 mm 2 m/S 754 mmHg 79%
    20:00 +24°C° 0 mm 2 m/S 754 mmHg 82%
    21:00 +23°C° 0 mm 2 m/S 754 mmHg 84%
    22:00 +23°C° 0.2 mm 1 m/S 754 mmHg 85%
    23:00 +23°C° 0.2 mm 1 m/S 754 mmHg 86%

    25 April, Donnerstag

    Zeit Temperatur Niederschläge Wind Luftdruck Luftfeuchtigkeit
    00:00 +23°C° 0.2 mm 1 m/S 754 mmHg 88%
    01:00 +23°C° 0.3 mm 1 m/S 754 mmHg 88%
    02:00 +23°C° 0.3 mm 1 m/S 753 mmHg 89%
    03:00 +20°C° 0.3 mm 0 m/S 753 mmHg 90%
    04:00 +20°C° 0.1 mm 0 m/S 753 mmHg 90%
    05:00 +20°C° 0.1 mm 0 m/S 753 mmHg 91%
    06:00 +20°C° 0.1 mm 0 m/S 753 mmHg 91%
    07:00 +23°C° 0.1 mm 1 m/S 753 mmHg 86%
    08:00 +24°C° 0.1 mm 1 m/S 753 mmHg 81%
    09:00 +24°C° 0.1 mm 1 m/S 753 mmHg 75%
    10:00 +25°C° 0 mm 2 m/S 753 mmHg 69%
    11:00 +26°C° 0 mm 2 m/S 754 mmHg 63%
    12:00 +27°C° 0 mm 2 m/S 754 mmHg 57%
    13:00 +27°C° 0 mm 2 m/S 753 mmHg 56%
    14:00 +27°C° 0 mm 3 m/S 753 mmHg 55%
    15:00 +27°C° 0 mm 3 m/S 753 mmHg 54%
    16:00 +26°C° 0 mm 3 m/S 753 mmHg 58%
    17:00 +26°C° 0 mm 3 m/S 753 mmHg 62%
    18:00 +25°C° 0 mm 2 m/S 753 mmHg 67%
    19:00 +24°C° 0 mm 2 m/S 753 mmHg 71%
    20:00 +23°C° 0 mm 2 m/S 754 mmHg 75%
    21:00 +22°C° 0 mm 1 m/S 754 mmHg 79%
    22:00 +22°C° 0 mm 1 m/S 754 mmHg 79%
    23:00 +21°C° 0 mm 1 m/S 754 mmHg 80%

    26 April, Freitag

    Zeit Temperatur Niederschläge Wind Luftdruck Luftfeuchtigkeit
    00:00 +21°C° 0 mm 1 m/S 754 mmHg 81%
    01:00 +20°C° 0 mm 2 m/S 754 mmHg 81%
    02:00 +19°C° 0 mm 2 m/S 754 mmHg 81%
    03:00 +19°C° 0 mm 2 m/S 754 mmHg 81%
    04:00 +19°C° 0 mm 2 m/S 754 mmHg 81%
    05:00 +18°C° 0 mm 2 m/S 755 mmHg 82%
    06:00 +18°C° 0 mm 2 m/S 755 mmHg 82%
    07:00 +19°C° 0 mm 2 m/S 755 mmHg 79%
    08:00 +19°C° 0 mm 2 m/S 756 mmHg 75%
    09:00 +19°C° 0 mm 2 m/S 756 mmHg 72%
    10:00 +20°C° 0 mm 2 m/S 756 mmHg 65%
    11:00 +21°C° 0 mm 2 m/S 756 mmHg 59%
    12:00 +24°C° 0 mm 2 m/S 756 mmHg 52%
    13:00 +24°C° 0 mm 2 m/S 756 mmHg 51%
    14:00 +24°C° 0 mm 2 m/S 756 mmHg 51%
    15:00 +24°C° 0 mm 2 m/S 756 mmHg 50%
    16:00 +22°C° 0 mm 3 m/S 757 mmHg 51%
    17:00 +21°C° 0 mm 3 m/S 757 mmHg 53%
    18:00 +20°C° 0 mm 3 m/S 757 mmHg 54%
    19:00 +19°C° 0 mm 3 m/S 758 mmHg 57%
    20:00 +18°C° 0 mm 3 m/S 759 mmHg 60%
    21:00 +17°C° 0 mm 3 m/S 759 mmHg 63%
    22:00 +16°C° 0 mm 3 m/S 760 mmHg 65%
    23:00 +14°C° 0 mm 3 m/S 760 mmHg 66%

    27 April, Samstag

    Zeit Temperatur Niederschläge Wind Luftdruck Luftfeuchtigkeit
    00:00 +13°C° 0 mm 3 m/S 760 mmHg 67%
    01:00 +13°C° 0 mm 3 m/S 760 mmHg 66%
    02:00 +12°C° 0 mm 3 m/S 760 mmHg 66%
    03:00 +12°C° 0 mm 3 m/S 760 mmHg 65%
    04:00 +12°C° 0 mm 3 m/S 761 mmHg 65%
    05:00 +11°C° 0 mm 3 m/S 761 mmHg 65%
    06:00 +11°C° 0 mm 3 m/S 762 mmHg 65%
    07:00 +13°C° 0 mm 3 m/S 762 mmHg 56%
    08:00 +16°C° 0 mm 3 m/S 763 mmHg 48%
    09:00 +17°C° 0 mm 3 m/S 763 mmHg 39%
    10:00 +19°C° 0 mm 3 m/S 763 mmHg 34%
    11:00 +21°C° 0 mm 3 m/S 763 mmHg 29%
    12:00 +23°C° 0 mm 2 m/S 763 mmHg 24%
    13:00 +24°C° 0 mm 3 m/S 763 mmHg 24%
    14:00 +24°C° 0 mm 3 m/S 762 mmHg 23%
    15:00 +24°C° 0 mm 3 m/S 762 mmHg 23%
    16:00 +22°C° 0 mm 3 m/S 762 mmHg 26%
    17:00 +21°C° 0 mm 3 m/S 763 mmHg 30%
    18:00 +21°C° 0 mm 3 m/S 763 mmHg 34%
    19:00 +19°C° 0 mm 3 m/S 763 mmHg 38%
    20:00 +18°C° 0 mm 3 m/S 764 mmHg 43%
    21:00 +16°C° 0 mm 3 m/S 764 mmHg 47%
    22:00 +15°C° 0 mm 2 m/S 764 mmHg 49%
    23:00 +15°C° 0 mm 2 m/S 764 mmHg 51%
    Mehr zeigen